This is the latest recevied weather packets stored in our database for station/object KF0FSA. If no packets are shown the sender has not sent any weather packets the latest 10 day(s).
| Time | Temp. | Humidity | Pressure | Rain* | Wind** | Luminosity | Snow |
|---|---|---|---|---|---|---|---|
| 1788139209 | 86° F | 62% | 715.3 mmHg | 0 in | - | 0 W/m² | - |
| 1788138766 | - | - | - | - | - | - | - |
| 1788128441 | 96° F | 44% | 714.8 mmHg | 0 in | - | 469 W/m² | - |
| 1788128140 | 96° F | 44% | 714.7 mmHg | 0 in | - | 375 W/m² | - |
| 1788127838 | - | - | - | 0 in | - | - | - |
| 1788127540 | 95° F | 44% | 714.7 mmHg | 0 in | - | 635 W/m² | - |
| 1788127241 | 95° F | 44% | 714.7 mmHg | 0 in | - | 635 W/m² | - |
| 1788126934 | 94° F | 43% | 714.7 mmHg | 0 in | - | 395 W/m² | - |
| 1788126628 | 94° F | 43% | 714.7 mmHg | 0 in | - | 260 W/m² | - |
| 1788126325 | 94° F | 43% | 714.7 mmHg | 0 in | - | 335 W/m² | - |
| 1788126147 | 95° F | 42% | 714.7 mmHg | 0 in | - | 222 W/m² | - |
| 1788125723 | 95° F | 43% | 714.7 mmHg | 0 in | - | 425 W/m² | - |
| 1788125422 | 95° F | 43% | 714.7 mmHg | 0 in | - | 268 W/m² | - |
| 1788125123 | 95° F | 43% | 714.7 mmHg | 0 in | - | 329 W/m² | - |
| 1788124822 | 96° F | 41% | 714.7 mmHg | 0 in | - | 268 W/m² | - |
| 1788124523 | 97° F | 40% | 714.7 mmHg | 0 in | - | 381 W/m² | - |
| 1788124341 | 97° F | 40% | 714.7 mmHg | 0 in | - | 484 W/m² | - |
| 1788123917 | 96° F | 40% | 714.7 mmHg | 0 in | - | 738 W/m² | - |
| 1788123617 | 95° F | 40% | 714.7 mmHg | 0 in | - | 357 W/m² | - |
| 1788123317 | 95° F | 40% | 714.7 mmHg | 0 in | - | 357 W/m² | - |
| 1788123141 | 95° F | 41% | 714.7 mmHg | 0 in | - | 260 W/m² | - |
| 1788122714 | 96° F | 40% | 714.7 mmHg | 0 in | - | 284 W/m² | - |
| 1788122412 | 95° F | 42% | 714.7 mmHg | 0 in | - | 779 W/m² | - |
| 1788122105 | 95° F | 43% | 714.7 mmHg | 0 in | - | 318 W/m² | - |
| 1788121803 | 95° F | 43% | 714.8 mmHg | 0 in | - | 630 W/m² | - |
* Rain latest hour (hover to see other rain measurements)
** Current wind speed in m/s (hover to see current wind gust speed)